Flag for Italy Weather past 2 weeks in Venice, Italy

Now
66 °F

Sprinkles. Broken clouds.


Feels Like: 66 °F
Forecast: 63 / 72 °F
Wind: 10 mph from Northwest

Location: Venice / Tessera

Current Time: Aug 23, 2014 at 8:43:56 AM

Latest Report: Aug 23, 2014 at 7:50 AM


Visibility: N/A

Pressure: 29.89 "Hg

Humidity: 83%

Dew point: 61 °F

Location of VeniceLocation

Historic Weather in Venice — Graph

°F

Venice temperature yesterday

Maximum temperature yesterday: 79 °F (at 3:20 PM)
Minimum temperature yesterday: 64 °F (at 1:20 AM)
Average temperature yesterday: 71 °F

Past Weeks' High & Low Weather Summary

 TemperatureHumidityPressure
High84 °F (Aug 8, 3:50 PM)100% (Aug 14, 6:20 AM)30.07 "Hg (Aug 14, 6:20 AM)
Low55 °F (Aug 17, 6:20 AM)45% (Aug 18, 7:20 PM)29.62 "Hg (Aug 13, 3:50 PM)
Average72 °F76%29.90 "Hg
* Reported Aug 8 7:20 AM — Aug 23 7:50 AM, Venice, Weather by CustomWeather, © 2014

Note: Actual official high and low records may vary slightly from our data, if they occured in-between our weather recording intervals... More about our weather records

Advertising

Venice weather history for previous 24 hours

 ConditionsComfort  
Time TempWeatherWind HumidityBarometerVisibility
7:50 AM
Aug 23
66 °FSprinkles. Broken clouds.10 mph83%29.89 "HgN/A
7:20 AM68 °FRain showers. Scattered clouds.16 mph83%29.89 "Hg6 mi
6:50 AM66 °FPassing clouds.10 mph88%29.89 "HgN/A
6:20 AM66 °FPassing clouds.12 mph88%29.89 "HgN/A
5:50 AM66 °FPassing clouds.13 mph88%29.89 "HgN/A
5:20 AM66 °FPassing clouds.7 mph88%29.92 "HgN/A
4:50 AM66 °FLight rain. Passing clouds.9 mph88%29.92 "HgN/A
4:20 AM68 °FThundershowers. Passing clouds.8 mph88%29.92 "HgN/A
3:50 AM68 °FPassing clouds.7 mph88%29.92 "HgN/A
3:20 AM68 °FPassing clouds.9 mph88%29.92 "HgN/A
1:50 AM68 °FClear.6 mph88%29.92 "Hg10 mi
1:20 AM68 °FClear.7 mph88%29.92 "Hg10 mi
12:50 AM72 °FClear.1 mph83%29.95 "Hg10 mi
12:20 AM72 °FClear.2 mph78%29.95 "Hg10 mi
11:50 PM
Aug 22
72 °FClear.1 mph78%29.95 "Hg10 mi
11:20 PM72 °FClear.3 mph78%29.92 "Hg10 mi
10:50 PM72 °FClear.1 mph78%29.95 "Hg10 mi
10:20 PM72 °FClear.2 mph83%29.95 "Hg10 mi
9:50 PM73 °FClear.3 mph78%29.95 "Hg10 mi
9:20 PM73 °FClear.5 mph74%29.92 "Hg10 mi
8:50 PM73 °FSunny.6 mph74%29.92 "Hg10 mi
8:20 PM73 °FSunny.5 mph69%29.92 "Hg10 mi
7:50 PM73 °FSunny.2 mph65%29.92 "Hg10 mi
7:20 PM75 °FSunny.2 mph65%29.92 "Hg10 mi
6:50 PM77 °FSunny.3 mph54%29.92 "Hg10 mi
6:20 PM77 °FSunny.5 mph61%29.92 "Hg10 mi
5:50 PM77 °FSunny.5 mph57%29.92 "Hg10 mi
5:20 PM77 °FSunny.5 mph61%29.92 "Hg10 mi
4:50 PM77 °FPassing clouds.3 mph61%29.92 "HgN/A
4:20 PM77 °FPassing clouds.3 mph61%29.92 "HgN/A
3:50 PM77 °FPassing clouds.5 mph57%29.92 "HgN/A
3:20 PM79 °FPassing clouds.5 mph58%29.92 "HgN/A
2:50 PM77 °FPassing clouds.5 mph57%29.95 "HgN/A
2:20 PM77 °FPassing clouds.2 mph57%29.95 "HgN/A
1:50 PM77 °FPassing clouds.3 mph61%29.95 "HgN/A
1:20 PM75 °FPassing clouds.6 mph65%29.95 "HgN/A
12:50 PM75 °FPassing clouds.7 mph61%29.95 "HgN/A
12:20 PM75 °FScattered clouds.8 mph61%29.95 "HgN/A
11:50 AM73 °FPassing clouds.8 mph61%29.95 "HgN/A
11:20 AM73 °FPassing clouds.8 mph65%29.95 "HgN/A
10:50 AM73 °FScattered clouds.10 mph61%29.95 "HgN/A
10:20 AM70 °FScattered clouds.12 mph69%29.95 "HgN/A
9:50 AM72 °FScattered clouds.13 mph65%29.95 "HgN/A
9:20 AM70 °FScattered clouds.12 mph64%29.95 "HgN/A
8:50 AM68 °FSunny.12 mph69%29.95 "Hg10 mi
8:20 AM66 °FSunny.12 mph73%29.92 "Hg10 mi
Weather by CustomWeather, © 2014

See weather overviewHow to use our weather pages